Time,TemperatureF,DewpointF,PressureIn,WindDirection,WindDirectionDegrees,WindSpeedMPH,WindSpeedGustMPH,Humidity,HourlyPrecipIn,Conditions,Clouds,dailyrainin,SoftwareType,DateUTC
2013-04-30 00:14:00,59.2,54.7,29.82,East,90,1.7,-999.0,85,-99.99,,,0.00,Acu-Link.com,2013-04-30 04:14:00,
2013-04-30 00:29:00,58.8,54.3,29.82,South,180,1.1,-999.0,85,-99.99,,,0.00,Acu-Link.com,2013-04-30 04:29:00,
2013-04-30 00:44:00,58.6,54.1,29.83,South,180,0.0,-999.0,85,-99.99,,,0.00,Acu-Link.com,2013-04-30 04:44:00,
2013-04-30 00:59:00,58.6,54.4,29.84,NNE,22,1.7,-999.0,86,-99.99,,,0.00,Acu-Link.com,2013-04-30 04:59:00,
2013-04-30 01:15:00,58.8,54.3,29.84,South,180,0.0,-999.0,85,-99.99,,,0.00,Acu-Link.com,2013-04-30 05:15:00,
2013-04-30 01:30:00,58.6,54.1,29.85,NNE,22,0.0,-999.0,85,-99.99,,,0.00,Acu-Link.com,2013-04-30 05:30:00,
2013-04-30 01:45:00,58.3,54.1,29.84,South,180,1.1,-999.0,86,-99.99,,,0.00,Acu-Link.com,2013-04-30 05:45:00,
2013-04-30 02:00:00,58.3,54.4,29.84,South,180,1.1,-999.0,87,-99.99,,,0.00,Acu-Link.com,2013-04-30 06:00:00,
2013-04-30 02:15:00,58.1,54.6,29.84,ESE,112,0.0,-999.0,88,-99.99,,,0.00,Acu-Link.com,2013-04-30 06:15:00,
2013-04-30 02:30:00,57.7,54.8,29.85,South,180,0.0,-999.0,90,-99.99,,,0.00,Acu-Link.com,2013-04-30 06:30:00,
2013-04-30 02:45:00,57.4,54.8,29.85,NNE,22,0.0,-999.0,91,-99.99,,,0.00,Acu-Link.com,2013-04-30 06:45:00,
2013-04-30 03:00:00,57.4,54.8,29.85,South,180,1.7,-999.0,91,-99.99,,,0.00,Acu-Link.com,2013-04-30 07:00:00,
2013-04-30 03:15:00,57.6,55.0,29.84,NNE,22,1.1,-999.0,91,-99.99,,,0.00,Acu-Link.com,2013-04-30 07:15:00,
2013-04-30 03:31:00,57.7,54.8,29.85,South,180,2.2,-999.0,90,-99.99,,,0.00,Acu-Link.com,2013-04-30 07:31:00,
2013-04-30 03:46:00,57.2,54.3,29.85,South,180,1.7,-999.0,90,-99.99,,,0.00,Acu-Link.com,2013-04-30 07:46:00,
2013-04-30 04:01:00,56.7,54.1,29.86,SSE,157,1.7,-999.0,91,-99.99,,,0.00,Acu-Link.com,2013-04-30 08:01:00,
2013-04-30 04:16:00,56.3,53.7,29.86,ESE,112,0.0,-999.0,91,-99.99,,,0.00,Acu-Link.com,2013-04-30 08:16:00,
2013-04-30 04:32:00,55.9,53.6,29.86,ESE,112,1.7,-999.0,92,-99.99,,,0.00,Acu-Link.com,2013-04-30 08:32:00,
2013-04-30 04:47:00,55.6,53.6,29.86,NNE,22,2.2,-999.0,93,-99.99,,,0.00,Acu-Link.com,2013-04-30 08:47:00,
2013-04-30 05:02:00,54.7,53.0,29.86,South,180,2.2,-999.0,94,-99.99,,,0.00,Acu-Link.com,2013-04-30 09:02:00,
2013-04-30 05:17:00,54.5,53.1,29.86,South,180,0.0,-999.0,95,-99.99,,,0.00,Acu-Link.com,2013-04-30 09:17:00,
2013-04-30 05:32:00,54.1,53.0,29.86,NNE,22,2.2,-999.0,96,-99.99,,,0.00,Acu-Link.com,2013-04-30 09:32:00,
2013-04-30 05:47:00,54.1,53.0,29.85,SSE,157,2.7,-999.0,96,-99.99,,,0.00,Acu-Link.com,2013-04-30 09:47:00,
2013-04-30 06:03:00,53.8,52.7,29.86,South,180,2.2,-999.0,96,-99.99,,,0.00,Acu-Link.com,2013-04-30 10:03:00,
2013-04-30 06:18:00,53.2,52.4,29.85,SE,135,2.2,-999.0,97,-99.99,,,0.00,Acu-Link.com,2013-04-30 10:18:00,
2013-04-30 06:33:00,53.1,52.3,29.85,ESE,112,2.7,-999.0,97,-99.99,,,0.00,Acu-Link.com,2013-04-30 10:33:00,
2013-04-30 06:48:00,53.1,52.5,29.87,NNE,22,1.1,-999.0,98,-99.99,,,0.00,Acu-Link.com,2013-04-30 10:48:00,
2013-04-30 07:03:00,53.6,52.8,29.89,South,180,0.0,-999.0,97,-99.99,,,0.00,Acu-Link.com,2013-04-30 11:03:00,
2013-04-30 07:18:00,55.0,53.3,29.88,ESE,112,3.2,-999.0,94,-99.99,,,0.00,Acu-Link.com,2013-04-30 11:18:00,
2013-04-30 07:34:00,55.8,53.8,29.89,ESE,112,2.7,-999.0,93,-99.99,,,0.00,Acu-Link.com,2013-04-30 11:34:00,
2013-04-30 07:49:00,57.6,54.7,29.89,South,180,2.7,-999.0,90,-99.99,,,0.00,Acu-Link.com,2013-04-30 11:49:00,
2013-04-30 08:04:00,58.8,54.9,29.91,ESE,112,2.2,-999.0,87,-99.99,,,0.00,Acu-Link.com,2013-04-30 12:04:00,
2013-04-30 08:19:00,59.2,54.4,29.91,South,180,2.2,-999.0,84,-99.99,,,0.00,Acu-Link.com,2013-04-30 12:19:00,
2013-04-30 08:34:00,59.7,54.5,29.92,SSE,157,3.7,-999.0,83,-99.99,,,0.00,Acu-Link.com,2013-04-30 12:34:00,
2013-04-30 08:49:00,60.6,54.7,29.94,SSE,157,3.2,-999.0,81,-99.99,,,0.00,Acu-Link.com,2013-04-30 12:49:00,
2013-04-30 09:04:00,62.8,56.2,29.93,SE,135,3.2,-999.0,79,-99.99,,,0.00,Acu-Link.com,2013-04-30 13:04:00,
2013-04-30 09:19:00,63.1,55.8,29.92,South,180,3.7,-999.0,77,-99.99,,,0.00,Acu-Link.com,2013-04-30 13:19:00,
2013-04-30 09:34:00,64.2,55.4,29.92,SE,135,3.7,-999.0,73,-99.99,,,0.00,Acu-Link.com,2013-04-30 13:34:00,
2013-04-30 09:50:00,62.1,54.4,29.92,SSE,157,2.7,-999.0,76,-99.99,,,0.00,Acu-Link.com,2013-04-30 13:50:00,
2013-04-30 10:05:00,60.8,53.9,29.92,South,180,5.3,-999.0,78,-99.99,,,0.00,Acu-Link.com,2013-04-30 14:05:00,
2013-04-30 10:20:00,59.7,54.9,29.94,SSE,157,2.7,-999.0,84,-99.99,,,0.00,Acu-Link.com,2013-04-30 14:20:00,
2013-04-30 10:35:00,58.1,54.9,29.94,SSE,157,2.7,-999.0,89,-99.99,,,0.03,Acu-Link.com,2013-04-30 14:35:00,
2013-04-30 10:50:00,57.4,55.4,29.95,SE,135,1.7,-999.0,93,-99.99,,,0.06,Acu-Link.com,2013-04-30 14:50:00,
2013-04-30 11:05:00,57.0,55.3,29.95,South,180,2.2,-999.0,94,-99.99,,,0.14,Acu-Link.com,2013-04-30 15:05:00,
2013-04-30 11:20:00,56.7,55.6,29.98,South,180,2.7,-999.0,96,-99.99,,,0.20,Acu-Link.com,2013-04-30 15:20:00,
2013-04-30 11:35:00,56.5,55.7,29.96,South,180,3.2,-999.0,97,-99.99,,,0.25,Acu-Link.com,2013-04-30 15:35:00,
2013-04-30 11:50:00,56.5,55.7,29.86,ESE,112,5.8,-999.0,97,-99.99,,,0.35,Acu-Link.com,2013-04-30 15:50:00,
2013-04-30 12:05:00,57.7,56.0,29.91,South,180,7.3,-999.0,94,-99.99,,,0.37,Acu-Link.com,2013-04-30 16:05:00,
2013-04-30 12:21:00,59.0,56.4,29.92,SE,135,3.7,-999.0,91,-99.99,,,0.37,Acu-Link.com,2013-04-30 16:21:00,
2013-04-30 12:36:00,59.9,57.0,29.92,SE,135,4.2,-999.0,90,-99.99,,,0.37,Acu-Link.com,2013-04-30 16:36:00,
2013-04-30 12:51:00,61.2,57.0,29.92,ESE,112,4.2,-999.0,86,-99.99,,,0.37,Acu-Link.com,2013-04-30 16:51:00,
2013-04-30 13:06:00,62.1,57.2,29.91,ESE,112,2.7,-999.0,84,-99.99,,,0.37,Acu-Link.com,2013-04-30 17:06:00,
2013-04-30 13:21:00,63.3,57.7,29.92,South,180,1.1,-999.0,82,-99.99,,,0.37,Acu-Link.com,2013-04-30 17:21:00,
2013-04-30 13:36:00,63.7,58.1,29.92,South,180,0.0,-999.0,82,-99.99,,,0.37,Acu-Link.com,2013-04-30 17:36:00,
2013-04-30 13:51:00,63.7,57.8,29.91,SE,135,3.7,-999.0,81,-99.99,,,0.37,Acu-Link.com,2013-04-30 17:51:00,
2013-04-30 14:06:00,64.6,57.9,29.91,SSE,157,4.7,-999.0,79,-99.99,,,0.37,Acu-Link.com,2013-04-30 18:06:00,
2013-04-30 14:21:00,64.2,57.9,29.90,West,270,3.2,-999.0,80,-99.99,,,0.37,Acu-Link.com,2013-04-30 18:21:00,
2013-04-30 14:37:00,64.8,57.8,29.89,SSE,157,3.2,-999.0,78,-99.99,,,0.37,Acu-Link.com,2013-04-30 18:37:00,
2013-04-30 14:52:00,66.0,57.8,29.89,South,180,4.2,-999.0,75,-99.99,,,0.37,Acu-Link.com,2013-04-30 18:52:00,
2013-04-30 15:07:00,67.6,58.6,29.88,South,180,6.8,-999.0,73,-99.99,,,0.37,Acu-Link.com,2013-04-30 19:07:00,
2013-04-30 15:22:00,67.6,57.9,29.88,SSE,157,7.3,-999.0,71,-99.99,,,0.37,Acu-Link.com,2013-04-30 19:22:00,
2013-04-30 15:37:00,71.2,58.8,29.87,South,180,4.2,-999.0,65,-99.99,,,0.37,Acu-Link.com,2013-04-30 19:37:00,
2013-04-30 15:52:00,71.1,57.4,29.87,NE,45,7.3,-999.0,62,-99.99,,,0.37,Acu-Link.com,2013-04-30 19:52:00,
2013-04-30 16:07:00,72.7,58.9,29.86,South,180,5.3,-999.0,62,-99.99,,,0.37,Acu-Link.com,2013-04-30 20:07:00,
2013-04-30 16:22:00,70.7,56.1,29.86,ESE,112,4.7,-999.0,60,-99.99,,,0.37,Acu-Link.com,2013-04-30 20:22:00,
2013-04-30 16:37:00,72.7,57.1,29.86,SSE,157,5.3,-999.0,58,-99.99,,,0.37,Acu-Link.com,2013-04-30 20:37:00,
2013-04-30 16:53:00,72.3,57.2,29.86,South,180,6.3,-999.0,59,-99.99,,,0.37,Acu-Link.com,2013-04-30 20:53:00,
2013-04-30 17:08:00,73.0,56.9,29.85,South,180,4.2,-999.0,57,-99.99,,,0.37,Acu-Link.com,2013-04-30 21:08:00,
2013-04-30 17:23:00,75.4,58.1,29.85,SSE,157,4.2,-999.0,55,-99.99,,,0.37,Acu-Link.com,2013-04-30 21:23:00,
2013-04-30 17:38:00,74.5,55.7,29.86,South,180,7.8,-999.0,52,-99.99,,,0.37,Acu-Link.com,2013-04-30 21:38:00,
2013-04-30 17:53:00,74.8,56.5,29.86,South,180,3.7,-999.0,53,-99.99,,,0.37,Acu-Link.com,2013-04-30 21:53:00,
2013-04-30 18:08:00,75.0,57.2,29.86,South,180,3.2,-999.0,54,-99.99,,,0.37,Acu-Link.com,2013-04-30 22:08:00,
2013-04-30 18:23:00,75.7,56.3,29.86,South,180,3.7,-999.0,51,-99.99,,,0.37,Acu-Link.com,2013-04-30 22:23:00,
2013-04-30 18:38:00,74.8,56.5,29.87,ESE,112,4.7,-999.0,53,-99.99,,,0.37,Acu-Link.com,2013-04-30 22:38:00,
2013-04-30 18:53:00,73.6,55.9,29.87,South,180,4.7,-999.0,54,-99.99,,,0.37,Acu-Link.com,2013-04-30 22:53:00,
2013-04-30 19:09:00,72.9,55.8,29.88,NNE,22,5.3,-999.0,55,-99.99,,,0.37,Acu-Link.com,2013-04-30 23:09:00,
2013-04-30 19:25:00,72.0,55.4,29.88,South,180,1.7,-999.0,56,-99.99,,,0.37,Acu-Link.com,2013-04-30 23:25:00,
2013-04-30 19:40:00,70.7,55.7,29.88,South,180,4.2,-999.0,59,-99.99,,,0.37,Acu-Link.com,2013-04-30 23:40:00,
2013-04-30 19:55:00,69.4,55.8,29.89,South,180,3.7,-999.0,62,-99.99,,,0.37,Acu-Link.com,2013-04-30 23:55:00,
2013-04-30 20:10:00,68.9,55.8,29.89,ESE,112,4.7,-999.0,63,-99.99,,,0.37,Acu-Link.com,2013-05-01 00:10:00,
2013-04-30 20:25:00,67.6,55.8,29.90,SSE,157,2.2,-999.0,66,-99.99,,,0.37,Acu-Link.com,2013-05-01 00:25:00,
2013-04-30 20:40:00,66.9,56.0,29.90,ESE,112,2.7,-999.0,68,-99.99,,,0.37,Acu-Link.com,2013-05-01 00:40:00,
2013-04-30 20:56:00,66.2,55.7,29.91,ESE,112,3.2,-999.0,69,-99.99,,,0.37,Acu-Link.com,2013-05-01 00:56:00,
2013-04-30 21:11:00,65.3,55.6,29.92,ESE,112,2.2,-999.0,71,-99.99,,,0.37,Acu-Link.com,2013-05-01 01:11:00,
2013-04-30 21:26:00,64.8,55.6,29.92,South,180,2.2,-999.0,72,-99.99,,,0.37,Acu-Link.com,2013-05-01 01:26:00,
2013-04-30 21:41:00,64.6,55.7,29.93,South,180,1.1,-999.0,73,-99.99,,,0.37,Acu-Link.com,2013-05-01 01:41:00,
2013-04-30 21:56:00,63.7,55.3,29.93,South,180,1.1,-999.0,74,-99.99,,,0.37,Acu-Link.com,2013-05-01 01:56:00,
2013-04-30 22:11:00,63.3,55.2,29.94,South,180,2.2,-999.0,75,-99.99,,,0.37,Acu-Link.com,2013-05-01 02:11:00,
2013-04-30 22:26:00,63.1,55.0,29.94,SE,135,2.7,-999.0,75,-99.99,,,0.37,Acu-Link.com,2013-05-01 02:26:00,
2013-04-30 22:41:00,63.0,55.3,29.94,SSE,157,2.2,-999.0,76,-99.99,,,0.37,Acu-Link.com,2013-05-01 02:41:00,
2013-04-30 22:56:00,62.8,55.1,29.95,South,180,1.7,-999.0,76,-99.99,,,0.37,Acu-Link.com,2013-05-01 02:56:00,
2013-04-30 23:12:00,62.1,54.8,29.95,South,180,0.0,-999.0,77,-99.99,,,0.37,Acu-Link.com,2013-05-01 03:12:00,
2013-04-30 23:27:00,61.5,54.6,29.95,South,180,1.7,-999.0,78,-99.99,,,0.37,Acu-Link.com,2013-05-01 03:27:00,
2013-04-30 23:42:00,61.5,54.9,29.95,SE,135,1.7,-999.0,79,-99.99,,,0.37,Acu-Link.com,2013-05-01 03:42:00,
2013-04-30 23:57:00,60.8,54.6,29.96,SE,135,1.7,-999.0,80,-99.99,,,0.37,Acu-Link.com,2013-05-01 03:57:00,